Torna al catalogo

FENGYUN 1C DEB

AttivoPO
NORAD 31437·DEBRIS·🇨🇳 China

Lanciato May 10, 1999 da Taiyuan Satellite Launch Center

Loading…

Prossimi Passaggi (prossime 24 ore)

TLE

AggiornatoSource: Space-Track

Epoca: Sep 13, 2026, 05:20 UTC

1 31437U 99025BTZ 26256.22223985  .00003877  00000-0  10984-2 0  9996
2 31437  98.8590 353.7672 0015665 153.1720 207.0284 14.46054016  4596

Traccia FENGYUN 1C DEB in tempo reale con AllMySat

Download on the App Store